Location: Kershaw
(34.5481°N, 80.5823°W)
Time: 15:39:13
(UTC+00:00)

Tiros 1 - Visible Passes

Search period start: 26 September 2022 00:00
Search period end: 06 October 2022 00:00
Orbit: 629 x 663 km, 48.4° (Epoch: 25 September)

Date Brightness Start Highest point End Pass type
(mag) Time Alt. Az. Time Alt. Az. Time Alt. Az.
26 Sep 9.5 08:35:45 18° NNE 08:35:45 18° NNE 08:37:38 10° NNE visible
26 Sep 9.5 10:14:51 10° NNW 10:17:32 15° N 10:20:13 10° NE visible
27 Sep 9.3 09:00:17 16° N 09:00:17 16° N 09:03:11 10° NNE visible
27 Sep 9.4 10:40:44 10° NNW 10:43:52 17° NNE 10:46:59 10° NE visible
28 Sep 9.4 09:24:51 13° NNW 09:26:35 15° N 09:29:16 10° NE visible
29 Sep 10.1 08:11:47 12° NNE 08:11:47 12° NNE 08:12:20 10° NNE visible
29 Sep 9.5 09:49:51 10° NNW 09:52:56 17° N 09:55:59 10° NE visible
30 Sep 9.7 08:36:23 14° N 08:36:23 14° N 08:38:20 10° NE visible
30 Sep 9.1 10:15:22 10° NNW 10:19:09 23° NNE 10:22:55 10° ENE visible
01 Oct 9.4 09:01:03 16° N 09:01:59 16° N 09:04:59 10° NE visible
01 Oct 8.4 10:40:44 10° NW 10:45:10 39° NNE 10:49:34 10° E visible
02 Oct 9.2 09:25:48 15° NNW 09:28:13 22° NNE 09:31:55 10° ENE visible
03 Oct 10.0 08:12:57 13° NE 08:12:57 13° NE 08:13:58 10° NE visible
03 Oct 8.5 09:50:37 14° NW 09:54:16 36° NNE 09:58:36 10° E visible
04 Oct 9.4 08:37:53 21° NNE 08:37:53 21° NNE 08:40:54 10° ENE visible
04 Oct 7.3 10:15:33 11° NW 10:20:04 73° NE 10:24:45 10° ESE visible
05 Oct 8.5 09:02:57 33° NNE 09:03:21 34° NNE 09:07:38 10° E visible
05 Oct 7.5 10:41:05 10° WNW 10:45:38 48° SW 10:50:08 10° SSE visible
